Regional Weather Roundup
Issued by NWS

Current Version | Previous Version | Text Only | Print | Product List | Glossary On
Versions: 1 2 3 4 5 6 7 8 9 10 11 12 13 14 15 16 17 18 19 20 21 22 23 24 25 26 27 28 29 30 31 32 33 34 35 36 37 38 39 40 41 42 43 44 45 46 47 48 49 50
000
ASUS45 KTFX 181110
RWRMT
Montana Regional Weather Roundup
National Weather Service Great Falls MT
500 AM MDT SUN APR 18 2021

NOTE: "FAIR" indicates few or no clouds below 12,000 feet with no
significant weather and/or obstructions to visibility.

MTZ001>007-043-181200-
West of the divide

CITY           SKY/WX    TMP DP  RH WIND       PRES   REMARKS
Kalispell      CLEAR     31  26  82 CALM      30.15R
Missoula       CLEAR     37  26  64 CALM      30.21S
Butte          CLEAR     23  16  74 SE5       30.24S
Anaconda         N/A     39  19  45 S10       30.22F
Deer Lodge       N/A     28  19  69 CALM      30.26S
Hamilton       CLEAR     41  23  48 S14       30.21S
Mullan Pass    CLEAR     43  18  36 NW5       30.22F
Ronan            N/A     30  25  80 E5        30.15S
$$

MTZ008-052>055-181200-
Southwest Montana

CITY           SKY/WX    TMP DP  RH WIND       PRES   REMARKS
Bozeman        CLEAR     30  20  66 S10       30.20S WCI  21
Dillon         CLEAR     28  13  53 CALM      30.22R
Ennis          CLEAR     27  14  59 CALM      30.27R
$$

MTZ009-010-012-014-046-048-049-054-181200-
East Slopes and Central Montana

CITY           SKY/WX    TMP DP  RH WIND       PRES   REMARKS
Cut Bank       CLEAR     28  19  69 W7        30.10S WCI  21
Great Falls    CLEAR     39  22  50 SW12      30.10S WCI  32
Helena         CLEAR     35  21  56 NW5       30.16S
Malmstrom AFB  CLEAR     36  25  65 N3        30.12R
Bowmans Corner FAIR      38  20  50 SW9       30.11S WCI  31
Choteau          N/A     39  23  52 SW3       30.10S
Fairfield      FAIR      39  23  51 W5        30.10S
Raynesford     FAIR      34  22  60 CALM      30.12F
Ulm            FAIR      38  23  56 CALM      30.10F
$$

MTZ011-013-016-021-045-047-050-051-181200-
North Central Montana

CITY           SKY/WX    TMP DP  RH WIND       PRES   REMARKS
Havre          CLEAR     31  22  69 E5        30.07F
Lewistown      CLEAR     30  22  72 SE6       30.11S WCI  24
Denton         FAIR      31  23  71 S3        30.08R
Grass Range    MOCLDY    41  20  44 SW8       30.08R
N Bar Ranch    FAIR      39  18  41 NW5       30.12R
Roy            FAIR      42  22  45 W10       30.09R
Stanford       FAIR      42  16  35 W9        30.10F
Winifred         N/A     40  21  45 SW6       30.09F
$$

MTZ017>020-022>027-061-062-181200-
Northeast Montana

CITY           SKY/WX    TMP DP  RH WIND       PRES   REMARKS
Glasgow        MOCLDY    43  28  55 NE20      30.02R
Circle           N/A     30  23  74 VRB3      29.99
Glendive       CLEAR     43  24  47 NW14      29.97S
Jordan           N/A     35  25  66 NW6       30.03R WCI  30
Malta          CLOUDY    43  23  45 CALM      30.08R
Plentywood     CLEAR     36  30  80 N26G32    30.02R WCI  23
Poplar           N/A     41  30  65 N16       30.01R
Sidney         PTCLDY    43  28  55 NW16      29.97R
Wolf Point     PTCLDY    43  30  60 N14       30.02R
$$

MTZ028>42-056>058-181200-
Southcentral and southeast Montana

CITY           SKY/WX    TMP DP  RH WIND       PRES   REMARKS
Baker          CLOUDY    41  22  46 W8        29.98F
Big Timber     CLEAR     43  19  39 W21       30.15S
Billings       PTCLDY    41  24  51 SW20      30.09S
Hardin         PTSUNNY   32  25  74 S7        30.06  WCI  26
Harlowton      FAIR      33  18  55 W14       30.12S WCI  23
Laurel           N/A     37  25  60 W12       30.11F WCI  30
Livingston     PTCLDY    31  19  61 NW15      30.17S WCI  20
Miles City     PTCLDY    32  19  58 S5        30.02R
$$

Regional Reports...Dakotas/MN

CITY           SKY/WX    TMP DP  RH WIND       PRES   REMARKS
Williston      MOSUNNY   38  31  76 N18G36    29.96R WCI  28
Minot          MOCLDY    42  32  67 N22G32    29.91R
Dickinson      PTCLDY    39  21  48 W10       29.90F
Beach          FAIR      39  21  48 W12       29.96S WCI  32
Crosby         CLOUDY    36  32  87 N8        30.02R WCI  29
Hettinger      MOCLDY    32  24  72 NW8       29.97F WCI  25
Tioga          FAIR      37  30  75 NE25G33   29.97R WCI  26
Watford City   FAIR      39  25  56 CALM      29.94R
Bismarck       MOCLDY    38  30  73 CALM      29.92F
Grand Forks    CLOUDY    41  32  70 CALM      29.82F
Fargo          CLOUDY    40  30  67 W7        29.87S
Buffalo SD       N/A     35  21  56 W12       29.96F WCI  27
Rapid City     CLEAR     31  20  63 W8        30.03F WCI  23
Intl Falls     PTCLDY    28  24  85 CALM      29.82F
Duluth         PTCLDY    34  22  61 CALM      29.87F
Minneapolis    CLEAR     39  28  64 CALM      29.94F
$$

Regional Reports...WY/ID/WA

CITY           SKY/WX    TMP DP  RH WIND       PRES   REMARKS
Buffalo WY     PTCLDY    39  21  48 W10       30.09S
Cody           CLEAR     37  22  54 S3        30.17S
Gillette       CLEAR     37  24  59 W14       30.07F WCI  28
Powell         FAIR      41  14  33 S3        30.14S
Sheridan       PTCLDY    38  22  52 CALM      30.07F
Boise          CLEAR     43  26  51 SE12      30.23R
Couer d`Alene  CLEAR     45  34  65 S7        30.17R
Idaho Falls    CLEAR     32  20  61 SW7       30.25S WCI  26
Salmon         CLEAR     30  19  63 SE3       30.28R
Spokane        CLEAR     48  25  40 S10       30.16S
Seattle        CLEAR     54  38  54 SE5       30.18R
$$

Regional Reports...Alberta

CITY           SKY/WX    TMP DP  RH WIND       PRES   REMARKS
Calgary        CLOUDY    37  30  75 N16G23    30.27R WCI  28
Cardston         N/A     34  21  60 SW1         N/A
Crowsnest Pass   N/A     25  23  93 CALM        N/A
Del Bonita       N/A     34  21  60 W8          N/A  WCI  27
Edmonton       CLOUDY    34  32  93 NE10      30.41R WCI  26
Fort McMurray  PTCLDY    28  23  80 NW5       30.49S
High Level     MOCLDY    28  25  86 NW6       30.63R WCI  22
Lethbridge     CLEAR     41  23  48 N15G22    30.13R
Lloydminster   PTCLDY    28  21  74 N12       30.34R WCI  18
Medicine Hat     N/A     43  23  45 NE14      30.16R
Milk River       N/A     30  23  74 W6          N/A  WCI  24
Onefour          N/A     43  23  45 CALM        N/A
Peace River    PTCLDY    30  27  86 N16       30.58R WCI  19
Pincher Creek  CLEAR     32  23  69 W9        30.13S WCI  24
Waterton Gate    N/A     36  23  60 SW1         N/A
Fort Smith NWT MOCLDY    28  21  74 N7        30.56R WCI  21
$$

Regional Reports...Saskatchewan

CITY           SKY/WX    TMP DP  RH WIND       PRES   REMARKS
Assiniboia       N/A     36  28  75 N8          N/A  WCI  29
Coronach         N/A     34  30  86 N10         N/A  WCI  26
Cypress Hills    N/A     36  19  51 NE9         N/A  WCI  29
Estevan        CLOUDY    37  32  81 NE16G25   30.01R WCI  28
La Ronge         N/A     25  16  68 N8          N/A  WCI  16
Moose Jaw        N/A     36  27  69 N15         N/A  WCI  26
Prince Albert  MOCLDY    32  19  59 N7        30.31R WCI  26
Regina         CLOUDY    36  27  69 N15G21    30.12R WCI  26
Rockglen         N/A     32  27  80 N7          N/A  WCI  26
Saskatoon      MOCLDY    30  21  69 NE10      30.27R WCI  21
Swift Current  CLOUDY    36  30  80 NE8       30.15R WCI  29
Uranium City     N/A     19  12  73 CALM        N/A
Val Marie        N/A     34  25  69 NE7         N/A  WCI  28
$$



USA.gov is the U.S. government's official web portal to all federal, state and local government web resources and services.